Flag for USA

Past Weather in Jefferson City, Missouri, USA — Yesterday and Last 2 Weeks

Now
80 °F

Thunderstorms. Mostly cloudy.


Feels Like: 83 °F
Forecast: 85 / 74 °F
Wind: 13 mph from Northeast

Location: Jefferson City Memorial Airport

Current Time: Jul 3, 2020 at 6:41:50 pm

Latest Report: Jul 3, 2020 at 6:09 pm


Visibility: 10 mi

Pressure: 29.95 "Hg

Humidity: 71%

Dew Point: 70 °F

Location of Jefferson CityLocation

Past Weather in Jefferson City — Graph

°F

Jefferson City Temperature Yesterday

Maximum temperature yesterday: 89 °F (at 5:53 pm)
Minimum temperature yesterday: 70 °F (at 5:14 am)
Average temperature yesterday: 78 °F

High & Low Weather Summary for the Past Weeks

 TemperatureHumidityPressure
High92 °F (Jun 26, 4:53 pm)93% (Jul 2, 3:02 am)30.03 "Hg (Jul 2, 3:02 am)
Low59 °F (Jun 24, 5:53 am)32% (Jun 23, 4:53 pm)29.69 "Hg (Jun 28, 5:53 pm)
Average78 °F69%29.87 "Hg
* Reported Jun 18 5:53 pm — Jul 3 5:06 pm, Jefferson City. Weather by CustomWeather, © 2020

Note: Actual official high and low records may vary slightly from our data, if they occured in-between our weather recording intervals... More about our weather records

Jefferson City Weather History for the Previous 24 Hours

Scroll right to see more
 ConditionsComfort  
Time TempWeatherWind HumidityBarometerVisibility
5:06 pm
Fri, Jul 3
85 °FThundershowers. Broken clouds.5 mph70%29.94 "Hg10 mi
4:53 pm85 °FLight rain. Mostly cloudy.5 mph68%29.90 "Hg9 mi
3:53 pm87 °FBroken clouds.6 mph63%29.89 "Hg10 mi
2:53 pm88 °FPassing clouds.7 mph57%29.91 "Hg10 mi
2:27 pm88 °FBroken clouds.3 mph59%29.96 "Hg10 mi
2:19 pm88 °FPartly sunny.7 mph59%29.97 "Hg10 mi
1:53 pm86 °FScattered clouds.8 mph61%29.92 "Hg10 mi
12:53 pm85 °FPartly sunny.6 mph65%29.94 "Hg10 mi
11:53 am85 °FBroken clouds.7 mph63%29.95 "Hg10 mi
11:23 am84 °FPartly sunny.3 mph65%30.00 "Hg10 mi
10:53 am83 °FMostly cloudy.7 mph68%29.96 "Hg10 mi
10:04 am82 °FPartly sunny.6 mph70%30.01 "Hg10 mi
9:53 am82 °FBroken clouds.8 mph72%29.96 "Hg10 mi
8:53 am80 °FPassing clouds.7 mph74%29.97 "Hg10 mi
7:53 am78 °FSunny.7 mph82%29.95 "Hg9 mi
6:53 am76 °FScattered clouds.No wind85%29.96 "Hg8 mi
5:53 am75 °FSunny.6 mph88%29.94 "Hg8 mi
4:53 am76 °FClear.No wind85%29.93 "Hg10 mi
3:53 am77 °FPassing clouds.No wind82%29.91 "Hg10 mi
2:53 am78 °FMostly cloudy.3 mph79%29.93 "Hg10 mi
1:53 am78 °FClear.5 mph76%29.91 "Hg10 mi
12:53 am79 °FClear.3 mph77%29.91 "Hg10 mi
11:53 pm
Thu, Jul 2
80 °FMostly cloudy.No wind74%29.92 "Hg10 mi
10:53 pm82 °FPassing clouds.No wind70%29.92 "Hg10 mi
9:53 pm82 °FClear.3 mph70%29.91 "Hg10 mi
8:53 pm83 °FPassing clouds.6 mph68%29.90 "Hg10 mi
7:53 pm86 °FSunny.6 mph59%29.89 "Hg10 mi
6:53 pm88 °FSunny.3 mph55%29.88 "Hg10 mi
Weather by CustomWeather, © 2020

See weather overview